Morristown, NJ

10:07 AM EDT on March 30, 2017 (GMT -0400)
Morristown Municipal

Weather History for KMMU - May, 2013

Change the Weather History Date:

Sunday, May 12, 2013

  Actual Average Record
Temperature  
Mean Temperature 52 °F -  
Max Temperature 66 °F 71 °F 92 °F (1953)
Min Temperature 39 °F 45 °F 30 °F (1947)
Degree Days  
Heating Degree Days 12    
Growing Degree Days 2 (Base 50)    
Moisture  
Dew Point 42 °F    
Average Humidity 57    
Maximum Humidity 94    
Minimum Humidity 21    
Precipitation  
Precipitation 0.01 in - - ()
Sea Level Pressure  
Sea Level Pressure 29.75 in    
Wind  
Wind Speed 7 mph (West)    
Max Wind Speed 26 mph    
Max Gust Speed 34 mph    
Visibility 10 miles    
Events Rain    
Averages and records for this station are not official NWS values.
T = Trace of Precipitation, MM = Missing Value Source: NWS Daily Summary

Daily Weather History Graph

Daily Weather History Graph

Search for Another Location

Airport or City:

Trip Planner

Search our weather history database for the weather conditions in past years. The results will help you decide how hot, cold, wet, or windy it might be!

Date:

Astronomy

May. 12, 2013 Rise Set
Actual Time 5:43 AM EDT 8:05 PM EDT
Civil Twilight 5:12 AM EDT 8:36 PM EDT
Nautical Twilight 4:34 AM EDT 9:14 PM EDT
Astronomical Twilight 3:51 AM EDT 9:57 PM EDT
Moon 7:35 AM EDT (5/12) 10:30 PM EDT (5/12)
Length of Visible Light 15h 24m
Length of Day
14h 22m
Waxing Crescent, 6% of the Moon is Illuminated
May 12
Waxing Crescent
May 18
First Quarter
May 25
Full
May 31
Last Quarter
Jun 8
New

Hourly Weather History & Observations

Time (EDT) Temp. Windchill Dew Point Humidity Pressure Visibility Wind Dir Wind Speed Gust Speed Precip Events Conditions
12:15 AM 62.6 °F - 60.8 °F 94% 29.73 in 10.0 mi WSW 5.8 mph - N/A   Overcast
12:35 AM 62.6 °F - 60.8 °F 94% 29.72 in 10.0 mi WSW 3.5 mph - N/A   Overcast
12:55 AM 62.6 °F - 59.0 °F 88% 29.70 in 10.0 mi Calm Calm - N/A   Overcast
1:15 AM 62.6 °F - 59.0 °F 88% 29.70 in 10.0 mi WSW 5.8 mph - N/A   Overcast
1:35 AM 62.6 °F - 57.2 °F 82% 29.70 in 10.0 mi WSW 4.6 mph - N/A   Mostly Cloudy
1:55 AM 62.6 °F - 55.4 °F 77% 29.70 in 10.0 mi WSW 4.6 mph - N/A   Mostly Cloudy
2:15 AM 62.6 °F - 55.4 °F 77% 29.69 in 7.0 mi WSW 4.6 mph - 0.01 in   Mostly Cloudy
2:35 AM 60.8 °F - 53.6 °F 77% 29.68 in 10.0 mi West 6.9 mph - 0.01 in   Mostly Cloudy
2:55 AM 60.8 °F - 53.6 °F 77% 29.69 in 10.0 mi WSW 4.6 mph - N/A   Mostly Cloudy
3:15 AM 60.8 °F - 53.6 °F 77% 29.69 in 10.0 mi Calm Calm - N/A   Scattered Clouds
3:35 AM 60.8 °F - 51.8 °F 72% 29.69 in 10.0 mi West 5.8 mph - N/A   Scattered Clouds
3:55 AM 60.8 °F - 51.8 °F 72% 29.69 in 10.0 mi West 4.6 mph - N/A   Mostly Cloudy
4:15 AM 60.8 °F - 50.0 °F 68% 29.69 in 10.0 mi WNW 4.6 mph - N/A   Mostly Cloudy
4:35 AM 60.8 °F - 50.0 °F 68% 29.70 in 10.0 mi Calm Calm - N/A   Overcast
4:55 AM 60.8 °F - 48.2 °F 63% 29.70 in 10.0 mi West 5.8 mph - N/A   Overcast
5:35 AM 60.8 °F - 48.2 °F 63% 29.72 in 10.0 mi West 3.5 mph - N/A   Overcast
5:55 AM 60.8 °F - 48.2 °F 63% 29.72 in 10.0 mi West 4.6 mph - N/A   Overcast
6:15 AM 59.0 °F - 46.4 °F 63% 29.72 in 10.0 mi West 4.6 mph - N/A   Overcast
6:35 AM 59.0 °F - 46.4 °F 63% 29.72 in 10.0 mi WSW 3.5 mph - N/A Rain Light Rain
6:45 AM 57.2 °F - 46.4 °F 67% 29.71 in 10.0 mi NNW 5.8 mph - N/A   Mostly Cloudy
7:45 AM 57.2 °F - 46.4 °F 67% 29.74 in 7.0 mi WNW 8.1 mph - N/A   Partly Cloudy
8:45 AM 60.8 °F - 42.8 °F 52% 29.72 in 10.0 mi WNW 11.5 mph - N/A   Partly Cloudy
9:45 AM 62.6 °F - 44.6 °F 52% 29.72 in 10.0 mi NW 13.8 mph 20.7 mph N/A   Clear
10:45 AM 64.4 °F - 46.4 °F 52% 29.71 in 10.0 mi NW 5.8 mph 18.4 mph N/A   Scattered Clouds
11:45 AM 66.2 °F - 42.8 °F 43% 29.70 in 10.0 mi WNW 16.1 mph 24.2 mph N/A   Mostly Cloudy
12:45 PM 66.2 °F - 39.2 °F 37% 29.71 in 10.0 mi West 18.4 mph 28.8 mph N/A   Mostly Cloudy
1:45 PM 64.4 °F - 33.8 °F 32% 29.72 in 10.0 mi West 17.3 mph 25.3 mph N/A   Partly Cloudy
2:45 PM 64.4 °F - 30.2 °F 28% 29.72 in 10.0 mi West 20.7 mph 29.9 mph N/A   Scattered Clouds
3:45 PM 64.4 °F - 23.0 °F 21% 29.73 in 10.0 mi West 19.6 mph 28.8 mph N/A   Clear
4:45 PM 62.6 °F - 26.6 °F 26% 29.75 in 10.0 mi West 20.7 mph 28.8 mph N/A   Partly Cloudy
5:45 PM 60.8 °F - 24.8 °F 25% 29.78 in 10.0 mi WNW 26.5 mph 34.5 mph N/A   Partly Cloudy
6:45 PM 59.0 °F - 23.0 °F 25% 29.81 in 20.0 mi WNW 19.6 mph 32.2 mph N/A   Scattered Clouds
7:45 PM 39.2 °F 31.2 °F 23.0 °F 52% 29.83 in 10.0 mi West 13.8 mph 23.0 mph N/A   Scattered Clouds
8:45 PM 55.4 °F - 26.6 °F 33% 29.87 in 7.0 mi NW 10.4 mph 24.2 mph N/A   Scattered Clouds
9:45 PM 51.8 °F - 26.6 °F 38% 29.92 in 7.0 mi WNW 11.5 mph 20.7 mph N/A   Scattered Clouds
10:55 PM 53.6 °F - 24.8 °F 33% 29.94 in 10.0 mi West 8.1 mph 17.3 mph N/A   Clear
11:15 PM 53.6 °F - 24.8 °F 33% 29.94 in 10.0 mi West 9.2 mph 17.3 mph N/A   Clear
11:35 PM 51.8 °F - 24.8 °F 35% 29.94 in 10.0 mi West 6.9 mph - N/A   Clear
11:55 PM 50.0 °F - 26.6 °F 40% 29.95 in 10.0 mi West 5.8 mph - N/A   Clear